SCP
1 1 1 1 1 1 1 1 1 1 1 1 1 1 1 1 1 1 1 1 2 2 1 1 1 1 1 1 1 1 1 1 1 1 1 1 1 1 1 1 1 1 1
1 1 1 1 1 1 1 1 1 1 1 1 1 1 1 1 1 1 1 1 2 2 1 1 1 1 1 1 1 1 1 1 1 1 1 1 1 1 1 1 1 1 1
1 1 1 1 1 1 1 1 1 1 1 1 1 1 1 1 1 1 1 1 1 2 1 1 1 2 1 1 1 1 1 1 1 1 1 1 1 1 1 1 1 1 1
2 1 1 1 1 1 1 1 1 1 1 1 1 1 1 1 1 1 1 1 1 1 1 1 2 2 2 1 1 1 1 1 1 1 1 1 1 1 1 1 1 1 1
2 1 1 1 1 1 1 1 1 1 1 0 0 0 0 1 1 1 1 1 1 1 1 1 1 1 1 1 1 1 1 1 1 1 1 1 1 1 1 1 1 1 1
2 2 1 1 1 1 1 1 1 1 1 0 0 0 0 0 0 1 1 1 1 1 1 1 1 1 1 1 1 1 1 1 1 1 1 1 1 1 1 1 1 1 1
2 2 2 1 1 1 1 1 1 1 1 0 0 0 0 0 0 0 0 0 1 1 1 1 1 1 1 1 1 1 1 1 1 1 1 1 1 1 1 1 1 1 1
1 1 1 1 1 1 1 1 1 1 1 0 0 0 0 0 0 0 0 0 0 1 1 1 1 1 1 1 1 1 1 1 1 1 1 1 1 1 1 1 1 1 1
1 1 1 1 1 1 1 1 1 1 1 0 0 0 0 0 0 0 0 0 0 0 0 0 0 0 1 1 1 1 1 1 1 1 1 2 1 1 1 1 1 1 1
0 0 0 0 0 0 0 0 1 1 1 0 0 0 0 0 0 0 0 0 0 0 0 0 0 0 0 0 1 1 1 1 1 1 1 1 1 1 1 1 1 1 1
0 0 0 0 0 0 0 0 0 0 0 0 0 0 0 0 0 0 0 0 0 0 0 0 0 0 0 0 0 1 1 1 1 1 1 1 1 1 1 1 1 1 1
0 0 0 0 0 0 0 0 0 0 0 0 0 0 0 0 0 0 0 0 0 0 0 0 0 0 0 0 0 0 1 1 1 1 1 1 1 1 1 1 1 1 1
0 0 0 0 0 0 0 0 0 0 0 0 0 0 0 0 0 0 0 0 0 0 0 0 0 0 0 0 0 0 0 0 0 0 1 1 1 1 1 1 1 1 1
0 0 0 0 0 0 0 0 0 0 0 0 0 0 0 0 0 0 0 0 0 0 0 0 0 0 0 0 0 0 0 0 0 0 0 1 1 1 1 1 0 0 1
0 0 0 0 0 0 0 0 0 0 0 0 0 0 0 0 0 0 0 0 0 0 0 0 0 0 0 0 0 0 0 0 0 0 0 0 0 0 0 0 0 0 0
0 0 0 0 0 0 0 0 0 0 0 0 0 0 0 0 0 0 0 0 0 0 0 0 0 0 0 0 0 0 0 0 0 0 0 0 0 0 0 0 0 0 0
0 0 0 0 0 0 0 0 0 0 0 0 0 0 0 0 0 0 0 0 0 0 0 0 0 0 0 0 0 0 0 0 0 0 0 0 0 0 0 0 0 0 0
0 0 0 0 0 0 0 0 0 0 0 0 0 0 0 0 0 0 0 0 0 0 0 0 0 0 0 0 0 0 0 0 0 0 0 0 0 0 0 0 0 0 0
0 0 0 0 0 0 0 0 0 0 0 0 0 0 0 0 0 0 0 0 0 0 0 0 0 0 0 0 0 0 0 0 0 0 0 0 0 0 0 0 0 0 0
0 0 0 0 0 0 0 0 0 0 0 0 0 0 0 0 0 0 0 0 0 0 0 0 0 0 0 0 0 0 0 0 0 0 0 0 0 0 0 0 0 0 0
0 0 0 0 0 0 0 0 0 0 0 0 0 0 0 0 0 0 0 0 0 0 0 0 0 0 0 0 0 0 0 0 0 0 0 0 0 0 0 0 0 0 0
0 0 0 0 0 0 0 0 0 0 0 0 0 0 0 0 0 0 0 0 0 0 0 0 0 0 0 0 0 0 0 0 0 0 0 0 0 0 0 0 0 0 0
0 0 0 0 0 0 0 0 0 0 0 0 0 0 0 0 0 0 0 0 0 0 0 0 0 0 0 0 0 0 0 0 0 0 0 0 0 0 0 0 0 0 0
0 0 0 0 0 0 0 0 0 0 0 0 0 0 0 0 0 0 0 0 0 0 0 0 0 0 0 0 0 0 0 0 0 0 0 0 0 0 0 0 0 0 0
0 0 0 0 0 0 0 0 0 0 0 0 0 0 0 0 0 0 0 0 0 0 0 0 0 0 0 0 0 0 0 0 0 0 0 0 0 0 0 0 0 0 0
0 0 0 0 0 0 0 0 0 0 0 0 0 0 0 0 0 0 0 0 0 0 0 0 0 0 0 0 0 0 0 0 0 0 0 0 0 0 0 0 0 0 0
Wind_Speed
0 0 1 1 1 1 1 1 1 1 1 2 1 1 0 1 1 1 1 3 4 4 4 6 7 8 8 8 8 9 9 10 10 11 11 10 11 12 12 12 12 12 11
1 0 1 1 1 1 1 1 1 1 1 1 1 0 1 1 1 1 1 2 3 2 2 2 5 6 6 7 7 8 8 9 10 10 11 11 11 11 12 12 12 12 12
1 1 0 1 1 1 1 1 1 1 0 1 2 2 1 1 1 1 1 1 1 1 1 1 2 2 3 4 5 6 7 7 8 9 10 11 11 11 12 12 12 12 12
1 1 0 1 1 1 1 0 0 1 1 1 1 2 1 1 1 1 1 1 0 0 1 1 1 1 1 1 2 4 5 6 6 7 9 10 10 10 11 11 12 12 12
2 1 1 1 1 1 1 1 0 0 0 1 1 1 1 1 1 1 2 2 1 1 1 2 3 2 2 1 1 2 3 4 4 5 6 8 9 9 10 10 11 11 11
3 2 2 2 2 2 1 1 1 1 0 0 1 2 2 1 2 2 2 2 2 2 2 3 2 3 4 4 3 3 2 3 3 4 5 6 6 7 8 9 10 10 10
3 3 2 2 2 2 2 2 1 1 1 1 2 2 2 3 3 2 2 2 3 3 3 4 3 2 2 5 5 4 3 1 2 3 3 4 5 6 8 9 9 10 10
4 3 3 2 2 2 3 2 1 1 1 0 1 1 1 2 3 4 3 3 3 3 4 4 4 4 3 2 4 6 5 3 1 2 3 3 3 5 7 8 8 9 10
3 3 3 3 3 3 2 2 1 1 0 1 0 1 2 1 0 2 3 3 3 4 4 4 4 4 4 3 3 5 5 5 3 1 1 2 3 4 6 7 8 9 10
4 4 4 4 3 3 2 2 2 1 1 0 1 1 1 2 2 1 1 3 4 4 4 3 4 4 4 3 4 6 6 4 4 3 2 2 3 4 5 6 8 8 9
4 4 4 3 3 3 3 3 2 2 0 0 0 1 1 1 1 2 1 1 1 2 2 3 3 3 4 4 3 6 8 6 5 4 4 4 4 5 6 7 7 8 8
3 4 4 3 3 3 3 2 2 2 1 0 0 0 0 0 1 1 2 1 1 1 2 2 2 2 3 3 4 8 8 8 7 6 5 5 5 5 6 7 8 8 8
2 3 3 3 2 2 2 2 2 2 2 1 1 0 0 1 1 1 2 2 1 1 1 2 2 2 2 3 3 7 8 8 8 7 6 6 6 6 7 8 7 7 7
1 2 3 3 3 3 3 3 2 2 2 2 2 1 1 1 0 1 2 3 2 1 1 0 1 2 2 2 3 5 5 8 8 8 8 7 7 7 8 8 7 7 6
1 2 3 3 3 3 3 3 2 2 2 2 2 2 1 1 1 0 1 3 4 3 1 1 0 1 1 1 3 3 3 6 7 7 7 7 7 7 7 7 7 6 6
2 3 3 3 4 4 4 3 2 2 2 2 1 2 2 1 1 1 1 1 2 3 2 1 0 0 1 2 3 3 3 6 6 6 7 7 7 6 7 7 7 7 7
3 3 3 3 4 4 4 4 3 3 3 2 2 2 2 1 1 1 1 1 2 2 3 1 1 1 1 2 2 2 2 2 3 5 5 5 5 5 6 6 6 6 6
3 3 4 4 4 5 4 4 3 3 3 3 3 3 2 2 2 1 1 1 2 2 3 3 1 1 1 1 1 1 1 1 1 3 2 3 3 3 4 4 4 4 4
3 4 4 4 4 4 4 4 4 3 3 3 3 3 2 2 2 2 2 2 2 2 3 4 2 1 1 1 1 2 2 1 1 0 1 1 1 1 2 2 2 2 2
3 3 3 3 3 4 4 4 4 3 3 3 3 3 2 2 2 2 2 2 2 3 3 4 3 1 1 1 1 1 1 1 1 0 0 0 1 2 2 3 3 3 3
3 3 3 3 3 3 3 4 3 3 3 3 3 3 3 3 3 2 2 2 3 3 3 3 2 1 1 1 1 1 1 1 1 0 0 1 1 1 2 3 5 6 6
3 3 3 2 3 3 5 5 3 2 2 2 2 2 3 4 4 4 4 3 4 4 4 3 2 3 2 2 1 1 1 1 1 1 1 2 1 2 3 3 6 8 9
2 2 2 2 2 3 6 6 5 2 2 2 2 2 2 3 4 3 3 4 2 2 4 4 4 4 3 3 3 1 2 2 2 2 2 2 1 3 4 5 9 9 10
1 1 1 1 2 3 5 6 5 3 3 2 2 1 2 2 3 2 2 3 2 1 1 2 3 3 3 3 4 3 3 1 2 1 2 1 2 3 3 3 8 10 11
1 1 1 1 1 3 4 4 4 3 3 3 3 2 2 2 3 4 3 3 3 2 2 1 2 2 3 4 4 2 1 1 1 2 1 2 2 2 2 3 5 9 11
1 1 1 1 0 2 3 3 2 2 2 2 2 3 3 2 3 4 2 2 1 1 1 2 2 2 1 2 4 4 4 3 2 2 2 2 2 0 2 3 2 3 4
Wind_Direction
54 332 311 336 326 303 281 298 298 290 285 290 287 275 215 162 158 194 243 206 193 204 213 214 207 206 206 206 207 208 208 209 205 202 203 202 202 201 196 194 191 188 184
52 18 335 338 331 314 293 279 284 284 304 320 328 308 184 153 145 175 218 236 216 194 210 228 216 217 215 209 208 210 210 210 208 204 204 204 204 203 199 196 192 190 184
58 55 316 334 331 329 333 337 356 342 315 347 353 349 5 103 144 164 190 225 266 255 245 232 221 222 226 221 216 214 217 215 213 209 207 205 204 204 202 197 195 192 187
56 74 49 335 317 346 1 345 24 8 358 16 2 341 358 34 86 136 137 127 178 306 338 51 76 50 328 261 249 233 231 226 220 213 210 207 204 201 199 199 196 192 190
39 51 47 6 3 21 8 306 97 145 82 41 8 354 15 27 25 58 94 106 115 93 58 34 38 35 30 12 322 273 250 238 227 216 209 206 204 200 198 194 192 190 187
44 49 44 25 23 31 23 28 36 44 100 67 50 42 23 20 33 40 67 80 76 70 60 47 27 15 25 22 11 352 299 247 228 223 215 206 198 194 190 191 186 184 181
41 45 42 32 27 33 27 40 55 50 23 47 64 34 17 27 42 34 44 67 64 59 58 50 41 27 9 16 16 12 3 309 231 221 222 216 203 194 189 185 181 179 178
36 48 41 29 26 31 36 38 50 48 312 30 107 115 10 4 29 29 33 51 52 46 49 48 44 37 19 6 9 16 13 9 334 228 214 213 194 195 192 183 176 175 173
39 42 44 44 36 40 36 30 40 67 313 310 76 143 161 203 126 20 32 41 48 51 44 37 41 33 25 11 354 6 17 20 20 14 175 169 174 182 171 170 172 168 168
38 41 45 45 39 38 32 19 38 26 113 315 326 350 192 170 157 126 23 34 45 51 45 39 31 26 20 11 10 19 20 17 22 30 63 113 134 152 156 160 160 158 157
25 31 36 37 33 27 24 22 12 4 28 192 265 334 9 34 135 148 162 132 50 32 37 35 29 21 17 11 8 28 31 32 36 49 69 94 105 127 135 139 144 146 146
11 16 29 30 26 22 18 12 10 5 357 4 43 118 157 171 172 145 154 157 135 41 26 29 26 15 15 7 23 40 42 43 46 54 69 83 94 109 123 128 131 135 136
10 359 17 23 19 17 17 17 23 13 16 25 7 289 233 216 185 152 139 144 127 112 35 19 8 13 20 10 14 40 46 50 54 59 69 80 88 97 110 114 119 124 130
345 359 21 23 18 20 25 20 17 13 29 27 18 6 324 296 162 158 155 147 135 111 76 29 359 18 17 16 22 35 42 56 62 63 67 75 82 91 100 103 107 112 117
7 18 22 21 16 19 24 23 17 6 22 21 7 360 353 338 14 145 154 158 152 155 172 178 4 2 13 31 32 38 44 58 64 66 67 73 80 86 95 97 100 106 107
21 19 21 27 24 18 19 25 7 4 26 13 11 20 11 356 26 47 124 155 151 144 146 152 181 63 24 63 61 50 52 61 63 68 70 71 76 83 92 96 99 101 104
27 31 31 31 30 23 18 22 14 23 27 18 21 30 13 22 47 38 63 103 119 125 131 123 70 61 50 59 45 37 40 44 49 59 67 71 76 85 93 100 102 104 108
31 39 44 41 38 30 22 23 18 23 26 24 20 33 16 47 55 49 77 102 115 120 132 137 115 68 62 75 58 47 42 55 55 52 66 79 86 95 101 104 106 109 114
43 39 53 53 39 30 24 19 24 29 30 27 25 35 27 57 61 57 77 93 101 105 107 126 122 87 66 70 66 37 36 27 24 111 138 135 135 140 145 147 140 139 142
55 51 59 57 41 30 21 16 28 35 29 24 22 30 35 56 73 79 81 91 105 105 107 119 120 108 89 56 86 71 23 0 347 11 38 197 211 229 222 213 207 207 208
62 62 64 48 32 29 15 15 23 38 34 26 17 18 37 60 74 86 109 122 124 121 124 128 131 120 127 128 165 194 150 335 326 291 352 291 265 272 260 244 235 231 229
49 55 54 45 32 17 14 25 32 33 30 38 21 10 25 39 48 60 79 107 137 145 148 148 157 167 192 190 180 172 147 94 303 267 152 276 203 253 254 245 243 240 237
47 42 38 40 23 359 17 22 29 55 50 41 39 31 33 33 34 45 52 56 71 118 159 162 167 186 188 195 176 180 190 191 226 232 137 272 255 252 250 243 241 241 241
41 14 2 17 18 358 11 20 35 55 52 39 41 57 60 31 31 50 58 52 44 39 133 155 174 194 197 196 185 189 196 206 282 265 153 224 265 255 262 253 245 240 241
353 314 310 12 16 345 2 24 48 50 49 29 19 32 53 48 36 66 76 62 39 12 27 111 178 206 216 213 185 147 137 109 322 290 206 192 252 271 280 267 256 244 242
276 307 335 329 321 328 348 26 56 76 58 19 3 6 22 39 38 57 80 86 54 328 356 15 7 337 270 236 204 183 173 163 186 268 244 186 238 236 305 284 268 258 250